Tracking 19176 objects as of 27-May-2018
HD Live streaming from Space Station
objects crossing your sky now

KIKU 5 (ETS 5)

Track KIKU 5 (ETS 5) now!
KIKU 5 (ETS 5) is classified as:


NORAD ID: 18316
Int'l Code: 1987-070A
Perigee: 36,020.1 km
Apogee: 36,095.0 km
Inclination: 15.3 °
Period: 1,449.6 minutes
Semi major axis: 42428 km
RCS: 3.3395 m2 (large)
Launch date: August 27, 1987
Source: Japan (JPN)
Launch site: TANEGASHIMA SPACE CENTER (TNSTA)
aabbcc
Your satellite tracking list
Your tracking list is empty




NASA's NSSDC Master Catalog

Two Line Element Set (TLE):
1 18316U 87070A   18146.89606222 -.00000318 +00000-0 +00000-0 0  9999
2 18316 015.3041 359.7937 0008824 348.4764 012.0402 00.99337936099608
Source of the keplerian elements: AFSPC